Regional Weather Roundup
Issued by NWS Raleigh/Durham, NC

Home | Current Version | Previous Version | Text Only | Print | Product List | Glossary On
Versions: 1 2 3 4 5 6 7 8 9 10 11 12 13 14 15 16 17 18 19 20 21 22 23 24 25 26 27 28 29 30 31 32 33 34 35 36 37 38 39 40 41 42 43 44 45 46 47 48 49 50
000
ASUS42 KRAH 221110
RWRRAH
NORTH CAROLINA WEATHER ROUNDUP
NATIONAL WEATHER SERVICE RALEIGH NC
600 AM EST MON DEC 22 2014

NOTE: "FAIR" INDICATES FEW OR NO CLOUDS BELOW 12,000 FEET WITH NO
SIGNIFICANT WEATHER AND/OR OBSTRUCTIONS TO VISIBILITY.

NCZ001-053-055-056-065-067-221200-
WESTERN NORTH CAROLINA

CITY           SKY/WX    TMP DP  RH WIND       PRES   REMARKS
ASHEVILLE      CLOUDY    39  38  96 CALM      30.07S FOG
JEFFERSON      FOG       33  33 100 E3        30.06S VSB 1/4
MORGANTON      DRIZZLE   39  38  95 CALM      30.16S
HICKORY        LGT RAIN  38  35  89 NE8       30.11S FOG     WCI  32
RUTHERFORDTON  CLOUDY    40  40  99 CALM      30.12S FOG
MOUNT AIRY     CLOUDY    38  34  84 E7        30.15F WCI  33
BOONE          FOG       34  34 100 CALM      30.07R VSB 3/4
$$

NCZ021-022-025-041-071-084-088-221200-
CENTRAL NORTH CAROLINA

CITY           SKY/WX    TMP DP  RH WIND       PRES   REMARKS
CHARLOTTE      DRIZZLE   40  37  89 NE9       30.12R FOG     WCI  34
GREENSBORO     LGT RAIN  35  33  92 NE12      30.13S WCI  27
WINSTON-SALEM  CLOUDY    35  33  92 NE9       30.15S FOG     WCI  28
RALEIGH-DURHAM LGT RAIN  36  33  89 NE12      30.14F WCI  28
FORT BRAGG     LGT RAIN  39  37  93 N8        30.13R WCI  34
FAYETTEVILLE   LGT RAIN  40  38  93 NE14      30.10S WCI  32
BURLINGTON     CLOUDY    36  32  85 NE12      30.14F WCI  28
LAURINBURG     LGT RAIN  41  39  93 NE13      30.11F
$$

NCZ011-015-027-028-043-044-047-080-103-221200-
NORTHEASTERN NORTH CAROLINA

CITY           SKY/WX    TMP DP  RH WIND       PRES   REMARKS
ROCKY MT-WILSO RAIN      38  36  92 NE14      30.13F FOG     WCI  30
GREENVILLE     DRIZZLE   39  39 100 NE7       30.14R WCI  34
WASHINGTON     CLOUDY    42  40  95 N9        30.12R
ELIZABETH CITY RAIN      47  41  80 NE16      30.16S
MANTEO         DRIZZLE   49  47  92 NE16G26   30.12S
CAPE HATTERAS  LGT RAIN  56  56 100 E10G16    30.06S
$$

NCZ078-087-090-091-093-098-101-221200-
SOUTHEASTERN NORTH CAROLINA

CITY           SKY/WX    TMP DP  RH WIND       PRES   REMARKS
LUMBERTON      LGT RAIN  42  40  92 N8        30.11R FOG
GOLDSBORO      LGT RAIN  39  39 100 NE10      30.09R WCI  32
KENANSVILLE    CLOUDY    40  39  99 NE3       30.09F FOG
NEW BERN       CLOUDY    48  45  89 N8        30.10R
CHERRY POINT   CLOUDY    49  47  93 NE13      30.08R FOG
BEAUFORT       CLOUDY    50  49  96 N10       30.06R FOG
JACKSONVILLE   LGT RAIN  45  43  93 N9        30.06S FOG
WILMINGTON     CLOUDY    44  43  96 N9        30.04F FOG
$$



USA.gov is the U.S. government's official web portal to all federal, state and local government web resources and services.